When you browse on this site, cookies collect data to enhance your experience and personalize the content and advertising you see.
Visit our Privacy Policy to learn more. By continuing to use the site, you agree to this use of cookies and data.
  • In United Kingdom
  • List of Countries
  • For 7 days
  • Water Temperature
  • Weather Map
  • Weather Widgets
  • user-avatar
    Login

    Hourly Weather Dragasani

    Today, 16 September, Monday

    Time Temperature Precipitation Wind Pressure Humidity
    00:00 +18°C° 0 mm 1 mps 752 mmHg 51%
    01:00 +16°C° 0 mm 1 mps 752 mmHg 53%
    02:00 +16°C° 0 mm 1 mps 752 mmHg 58%
    03:00 +15°C° 0 mm 1 mps 752 mmHg 60%
    04:00 +15°C° 0 mm 1 mps 751 mmHg 62%
    05:00 +14°C° 0 mm 1 mps 751 mmHg 64%
    06:00 +16°C° 0 mm 1 mps 751 mmHg 58%
    07:00 +19°C° 0 mm 1 mps 751 mmHg 53%
    08:00 +20°C° 0 mm 1 mps 750 mmHg 47%
    09:00 +23°C° 0 mm 2 mps 750 mmHg 41%
    10:00 +26°C° 0 mm 2 mps 750 mmHg 34%
    11:00 +28°C° 0 mm 2 mps 750 mmHg 28%
    12:00 +30°C° 0 mm 2 mps 749 mmHg 25%
    13:00 +31°C° 0 mm 2 mps 749 mmHg 21%
    14:00 +34°C° 0 mm 2 mps 748 mmHg 17%
    15:00 +34°C° 0 mm 2 mps 748 mmHg 17%
    16:00 +34°C° 0 mm 2 mps 747 mmHg 16%
    17:00 +34°C° 0 mm 2 mps 747 mmHg 16%
    18:00 +30°C° 0 mm 2 mps 747 mmHg 22%
    19:00 +26°C° 0 mm 2 mps 747 mmHg 27%
    20:00 +23°C° 0 mm 2 mps 747 mmHg 33%
    21:00 +21°C° 0 mm 2 mps 747 mmHg 36%
    22:00 +20°C° 0 mm 2 mps 747 mmHg 40%
    23:00 +19°C° 0 mm 2 mps 747 mmHg 43%

    Tomorrow, 17 September, Tuesday

    Time Temperature Precipitation Wind Pressure Humidity
    00:00 +19°C° 0 mm 2 mps 747 mmHg 44%
    01:00 +18°C° 0 mm 2 mps 747 mmHg 45%
    02:00 +18°C° 0 mm 2 mps 747 mmHg 46%
    03:00 +17°C° 0 mm 2 mps 747 mmHg 47%
    04:00 +17°C° 0 mm 2 mps 747 mmHg 49%
    05:00 +16°C° 0 mm 1 mps 746 mmHg 50%
    06:00 +19°C° 0 mm 1 mps 747 mmHg 47%
    07:00 +21°C° 0 mm 1 mps 747 mmHg 43%
    08:00 +22°C° 0 mm 1 mps 747 mmHg 39%
    09:00 +25°C° 0 mm 1 mps 747 mmHg 34%
    10:00 +28°C° 0 mm 2 mps 747 mmHg 30%
    11:00 +31°C° 0 mm 2 mps 747 mmHg 25%
    12:00 +33°C° 0 mm 3 mps 746 mmHg 24%
    13:00 +34°C° 0 mm 3 mps 746 mmHg 23%
    14:00 +35°C° 0 mm 4 mps 746 mmHg 22%
    15:00 +34°C° 0 mm 4 mps 745 mmHg 22%
    16:00 +34°C° 0 mm 4 mps 745 mmHg 23%
    17:00 +34°C° 0 mm 4 mps 745 mmHg 23%
    18:00 +30°C° 0 mm 3 mps 745 mmHg 29%
    19:00 +27°C° 0 mm 3 mps 745 mmHg 36%
    20:00 +24°C° 0 mm 2 mps 745 mmHg 42%
    21:00 +23°C° 0 mm 2 mps 745 mmHg 45%
    22:00 +21°C° 0 mm 2 mps 745 mmHg 48%
    23:00 +20°C° 0 mm 2 mps 745 mmHg 52%

    Day after tomorrow, 18 September, Wednesday

    Time Temperature Precipitation Wind Pressure Humidity
    00:00 +19°C° 0 mm 2 mps 745 mmHg 53%
    01:00 +20°C° 0 mm 1 mps 745 mmHg 54%
    02:00 +19°C° 0 mm 1 mps 745 mmHg 56%
    03:00 +19°C° 0 mm 1 mps 745 mmHg 56%
    04:00 +19°C° 0 mm 1 mps 745 mmHg 57%
    05:00 +19°C° 0 mm 1 mps 745 mmHg 57%
    06:00 +19°C° 0 mm 2 mps 745 mmHg 54%
    07:00 +20°C° 0 mm 2 mps 746 mmHg 51%
    08:00 +21°C° 0 mm 2 mps 746 mmHg 48%
    09:00 +21°C° 0.1 mm 3 mps 747 mmHg 47%
    10:00 +21°C° 0.1 mm 5 mps 748 mmHg 46%
    11:00 +21°C° 0.1 mm 6 mps 748 mmHg 46%
    12:00 +21°C° 0 mm 5 mps 749 mmHg 42%
    13:00 +22°C° 0 mm 5 mps 749 mmHg 38%
    14:00 +22°C° 0 mm 5 mps 750 mmHg 34%
    15:00 +22°C° 0 mm 4 mps 750 mmHg 30%
    16:00 +23°C° 0 mm 4 mps 750 mmHg 25%
    17:00 +23°C° 0 mm 4 mps 750 mmHg 21%
    18:00 +21°C° 0 mm 4 mps 750 mmHg 24%
    19:00 +19°C° 0 mm 3 mps 751 mmHg 27%
    20:00 +17°C° 0 mm 3 mps 751 mmHg 30%
    21:00 +16°C° 0 mm 3 mps 752 mmHg 33%
    22:00 +14°C° 0 mm 4 mps 752 mmHg 37%
    23:00 +13°C° 0 mm 4 mps 752 mmHg 40%

    19 September, Thursday

    Time Temperature Precipitation Wind Pressure Humidity
    00:00 +12°C° 0 mm 4 mps 752 mmHg 42%
    01:00 +12°C° 0 mm 4 mps 753 mmHg 43%
    02:00 +11°C° 0 mm 4 mps 753 mmHg 45%
    03:00 +11°C° 0 mm 4 mps 753 mmHg 46%
    04:00 +11°C° 0 mm 4 mps 753 mmHg 47%
    05:00 +10°C° 0 mm 4 mps 753 mmHg 49%
    06:00 +11°C° 0 mm 4 mps 753 mmHg 47%
    07:00 +12°C° 0 mm 4 mps 753 mmHg 45%
    08:00 +12°C° 0 mm 4 mps 753 mmHg 44%
    09:00 +14°C° 0 mm 4 mps 753 mmHg 40%
    10:00 +17°C° 0 mm 3 mps 752 mmHg 37%
    11:00 +19°C° 0 mm 2 mps 752 mmHg 33%
    12:00 +20°C° 0 mm 2 mps 752 mmHg 30%
    13:00 +23°C° 0 mm 1 mps 751 mmHg 26%
    14:00 +24°C° 0 mm 1 mps 751 mmHg 23%
    15:00 +24°C° 0 mm 1 mps 751 mmHg 22%
    16:00 +24°C° 0 mm 2 mps 750 mmHg 21%
    17:00 +24°C° 0 mm 2 mps 750 mmHg 20%
    18:00 +20°C° 0 mm 2 mps 750 mmHg 23%
    19:00 +18°C° 0 mm 2 mps 751 mmHg 27%
    20:00 +15°C° 0 mm 2 mps 751 mmHg 31%
    21:00 +15°C° 0 mm 2 mps 751 mmHg 32%
    22:00 +14°C° 0 mm 2 mps 751 mmHg 32%
    23:00 +13°C° 0 mm 3 mps 752 mmHg 33%

    20 September, Friday

    Time Temperature Precipitation Wind Pressure Humidity
    00:00 +12°C° 0 mm 3 mps 752 mmHg 36%
    01:00 +11°C° 0 mm 3 mps 752 mmHg 40%
    02:00 +10°C° 0 mm 3 mps 752 mmHg 43%
    03:00 +9°C° 0 mm 3 mps 752 mmHg 46%
    04:00 +8°C° 0 mm 2 mps 752 mmHg 49%
    05:00 +8°C° 0 mm 2 mps 753 mmHg 51%
    06:00 +9°C° 0 mm 2 mps 753 mmHg 47%
    07:00 +10°C° 0 mm 2 mps 753 mmHg 43%
    08:00 +13°C° 0 mm 2 mps 753 mmHg 39%
    09:00 +14°C° 0 mm 3 mps 753 mmHg 34%
    10:00 +17°C° 0 mm 3 mps 754 mmHg 29%
    11:00 +19°C° 0 mm 4 mps 754 mmHg 24%
    12:00 +20°C° 0 mm 4 mps 754 mmHg 21%
    13:00 +21°C° 0 mm 4 mps 753 mmHg 18%
    14:00 +22°C° 0 mm 4 mps 753 mmHg 15%
    15:00 +21°C° 0 mm 4 mps 753 mmHg 16%
    16:00 +21°C° 0 mm 4 mps 753 mmHg 16%
    17:00 +20°C° 0 mm 5 mps 753 mmHg 17%
    18:00 +18°C° 0 mm 4 mps 753 mmHg 20%
    19:00 +15°C° 0 mm 4 mps 754 mmHg 24%
    20:00 +12°C° 0 mm 4 mps 754 mmHg 27%
    21:00 +11°C° 0 mm 3 mps 755 mmHg 30%
    22:00 +10°C° 0 mm 3 mps 755 mmHg 33%
    23:00 +9°C° 0 mm 3 mps 756 mmHg 35%

    21 September, Saturday

    Time Temperature Precipitation Wind Pressure Humidity
    00:00 +9°C° 0 mm 3 mps 756 mmHg 37%
    01:00 +8°C° 0 mm 2 mps 756 mmHg 39%
    02:00 +8°C° 0 mm 2 mps 756 mmHg 42%
    03:00 +7°C° 0 mm 2 mps 756 mmHg 45%
    04:00 +7°C° 0 mm 2 mps 756 mmHg 49%
    05:00 +6°C° 0 mm 2 mps 756 mmHg 52%
    06:00 +7°C° 0 mm 2 mps 756 mmHg 49%
    07:00 +9°C° 0 mm 2 mps 756 mmHg 45%
    08:00 +10°C° 0 mm 2 mps 757 mmHg 42%
    09:00 +13°C° 0 mm 2 mps 757 mmHg 37%
    10:00 +15°C° 0 mm 2 mps 757 mmHg 32%
    11:00 +17°C° 0 mm 2 mps 756 mmHg 27%
    12:00 +19°C° 0 mm 1 mps 756 mmHg 25%
    13:00 +21°C° 0 mm 1 mps 755 mmHg 22%
    14:00 +22°C° 0 mm 1 mps 755 mmHg 20%
    15:00 +22°C° 0 mm 1 mps 755 mmHg 20%
    16:00 +22°C° 0 mm 1 mps 754 mmHg 20%
    17:00 +21°C° 0 mm 1 mps 754 mmHg 20%
    18:00 +19°C° 0 mm 1 mps 754 mmHg 24%
    19:00 +16°C° 0 mm 1 mps 755 mmHg 27%
    20:00 +14°C° 0 mm 1 mps 755 mmHg 31%
    21:00 +13°C° 0 mm 1 mps 755 mmHg 34%
    22:00 +12°C° 0 mm 1 mps 755 mmHg 36%
    23:00 +11°C° 0 mm 1 mps 755 mmHg 38%
    Show more